Location: Unspecified
(0.0000°N, 0.0000°E)
Time: 12:47:05
(UTC+00:00)

OBJECT F - Visible Passes

Search period start: 20 July 2025 00:00
Search period end: 30 July 2025 00:00
Orbit: 574 x 594 km, 82.0° (Epoch: 19 July)

Date Brightness Start Highest point End Pass type
(mag) Time Alt. Az. Time Alt. Az. Time Alt. Az.
20 Jul ? 20:01:20 10° NW 20:04:58 29° W 20:06:47 21° SW visible
21 Jul ? 18:31:53 10° NE 18:34:22 15° E 18:36:50 10° ESE visible
21 Jul ? 20:08:22 10° NW 20:11:15 18° W 20:14:09 10° SW visible
22 Jul ? 18:37:11 10° NNE 18:40:37 24° E 18:44:04 10° SE visible
22 Jul ? 20:16:20 10° WNW 20:17:32 11° W 20:18:44 10° WSW visible
23 Jul ? 18:42:57 10° NNE 18:46:53 39° E 18:50:51 10° SSE visible
24 Jul ? 18:48:59 10° N 18:53:09 67° E 18:57:22 10° SSE visible
25 Jul ? 18:55:13 10° N 18:59:24 73° W 19:03:38 10° S visible
26 Jul ? 19:01:40 10° NNW 19:05:39 43° W 19:09:42 10° SSW visible
27 Jul ? 19:08:22 10° NW 19:11:55 26° W 19:15:29 10° SSW visible
28 Jul ? 05:36:18 10° ESE 05:38:15 13° E 05:40:12 10° ENE visible
28 Jul ? 19:15:28 10° NW 19:18:10 17° W 19:20:52 10° SW visible
29 Jul ? 05:41:20 10° SE 05:44:30 21° E 05:47:39 10° NE visible
29 Jul ? 19:24:17 10° W 19:24:24 10° W 19:24:32 10° W visible
